Weather History for Tupelo, MS

Change the Weather History Date:

Wednesday, March 13, 2013

  Actual Average Record
Temperature  
Mean Temperature 44 °F 53 °F  
Max Temperature 55 °F 65 °F 85 °F (1967)
Min Temperature 33 °F 42 °F 21 °F (1932)
Degree Days  
Heating Degree Days 21 12  
Month to date heating degree days 257 178  
Since 1 July heating degree days 2483 2609  
Cooling Degree Days 0 0  
Month to date cooling degree days 0 0  
Year to date cooling degree days 6 2  
Moisture  
Dew Point 24 °F    
Average Humidity 45    
Maximum Humidity 64    
Minimum Humidity 26    
Precipitation  
Precipitation 0.00 in 0.16 in 1.91 in (1975)
Month to date precipitation 1.37 2.16  
Year to date precipitation 13.80 11.60  
Snow  
Snow 0.00 in 0.00 in 0.50 in (1993)
Month to date snowfall T 0.2  
Since 1 July snowfall T 2.0  
Snow Depth 0.00 in    
Sea Level Pressure  
Sea Level Pressure 30.33 in    
Wind  
Wind Speed 9 mph (North)    
Max Wind Speed 18 mph    
Max Gust Speed 24 mph    
Visibility 10 miles    
Events Thunderstorm    
T = Trace of Precipitation, MM = Missing Value Source: NWS Daily Summary

Daily Weather History Graph

Daily Weather History Graph

Search for Another Location

Airport:

Trip Planner

Search our weather history database for the weather conditions in past years. The results will help you decide how hot, cold, wet, or windy it might be!

Date:

Astronomy

Mar. 13, 2013 Rise Set
Actual Time 7:07 AM CDT 7:01 PM CDT
Civil Twilight 6:42 AM CDT 7:26 PM CDT
Nautical Twilight 6:13 AM CDT 7:55 PM CDT
Astronomical Twilight 5:44 AM CDT 8:24 PM CDT
Moon 7:54 AM CDT (3/13) 9:09 PM CDT (3/13)
Length of Visible Light 12h 43m
Length of Day
11h 53m
Waxing Crescent, 4% of the Moon is Illuminated
Mar 13
Waxing Crescent
Mar 19
First Quarter
Mar 27
Full
Apr 2
Last Quarter
Apr 10
New

Hourly Weather History & Observations

Time (CDT) Temp. Windchill Dew Point Humidity Pressure Visibility Wind Dir Wind Speed Gust Speed Precip Events Conditions
12:53 AM 44.1 °F 42.5 °F 30.9 °F 60% 30.21 in 10.0 mi West 3.5 mph - N/A   Overcast
1:53 AM 44.1 °F - 32.0 °F 63% 30.21 in 10.0 mi Calm Calm - N/A   Overcast
2:53 AM 46.0 °F 43.1 °F 28.0 °F 50% 30.22 in 10.0 mi NNW 5.8 mph - N/A   Clear
3:53 AM 45.0 °F 39.7 °F 28.0 °F 52% 30.23 in 10.0 mi North 10.4 mph - N/A   Clear
4:53 AM 44.1 °F 38.1 °F 27.0 °F 51% 30.25 in 10.0 mi North 11.5 mph 18.4 mph N/A   Clear
5:53 AM 42.1 °F 37.1 °F 27.0 °F 55% 30.28 in 10.0 mi North 8.1 mph - N/A   Clear
6:53 AM 41.0 °F 35.2 °F 25.0 °F 53% 30.30 in 10.0 mi North 9.2 mph - N/A   Clear
7:53 AM 41.0 °F 35.8 °F 24.1 °F 51% 30.33 in 10.0 mi North 8.1 mph - N/A   Clear
8:53 AM 43.0 °F 35.4 °F 25.0 °F 49% 30.35 in 10.0 mi North 16.1 mph 23.0 mph N/A   Clear
9:53 AM 44.1 °F 37.1 °F 21.0 °F 40% 30.37 in 10.0 mi North 15.0 mph 24.2 mph N/A   Clear
10:53 AM 46.0 °F 39.3 °F 19.9 °F 35% 30.38 in 10.0 mi North 16.1 mph 24.2 mph N/A   Clear
11:53 AM 48.9 °F - 21.9 °F 35% 30.37 in 10.0 mi NNW 8.1 mph 17.3 mph N/A   Clear
12:53 PM 52.0 °F - 23.0 °F 32% 30.36 in 10.0 mi North 10.4 mph 23.0 mph N/A   Clear
1:53 PM 53.1 °F - 21.9 °F 30% 30.34 in 10.0 mi North 9.2 mph 16.1 mph N/A   Clear
2:53 PM 54.0 °F - 21.9 °F 29% 30.34 in 10.0 mi WNW 10.4 mph 18.4 mph N/A   Clear
3:16 PM 53.6 °F - 19.4 °F 26% 30.34 in 10.0 mi NNW 16.1 mph 23.0 mph N/A Thunderstorm Thunderstorm
3:30 PM 53.6 °F - 19.4 °F 26% 30.33 in 10.0 mi North 12.7 mph 20.7 mph N/A   Clear
3:53 PM 54.0 °F - 19.0 °F 25% 30.33 in 10.0 mi North 15.0 mph 20.7 mph N/A   Clear
4:53 PM 53.1 °F - 19.9 °F 27% 30.34 in 10.0 mi NNW 13.8 mph 20.7 mph N/A   Clear
5:53 PM 51.1 °F - 19.0 °F 28% 30.35 in 10.0 mi North 8.1 mph 17.3 mph N/A   Clear
6:53 PM 48.0 °F - 19.9 °F 33% 30.36 in 10.0 mi North 10.4 mph - N/A   Clear
7:53 PM 43.0 °F 37.7 °F 23.0 °F 45% 30.38 in 10.0 mi NNE 9.2 mph - N/A   Clear
8:53 PM 42.1 °F 37.7 °F 21.9 °F 45% 30.39 in 10.0 mi NNE 6.9 mph - N/A   Clear
9:53 PM 37.9 °F 33.5 °F 24.1 °F 57% 30.41 in 10.0 mi NNE 5.8 mph - N/A   Clear
10:53 PM 36.0 °F 33.3 °F 23.0 °F 59% 30.42 in 10.0 mi NNE 3.5 mph - N/A   Clear
11:53 PM 36.0 °F - 24.1 °F 62% 30.43 in 10.0 mi Calm Calm - N/A   Clear